星链-37134(STARLINK-37134)

导读

STARLINK-37134(NORAD编号68281)是美国太空探索技术公司(SpaceX)星链(Starlink)项目的低轨互联网卫星,于2024年12月8日发射入轨,截至2026年4月已在轨飞行超480天。该卫星运行在近地点约355公里、远地点约357公里的近地轨道,轨道倾角43.001°,运行周期约91.66分钟,属于Starlink V1.0平台,旨在为全球提供高速低延迟卫星互联网服务,覆盖全球范围,兼顾民用、商业和部分行业通信需求。

Basic Information
目录编号:
68281
目录名称:
STARLINK-37134
国际标识:
2026-055V
轨道中心:
EARTH
卫星名称:
星链-37134
卫星全名:
星链-37134(STARLINK-37134)
卫星状态:
在轨 (已飞行178 天)
发射日期:
2026-03-19 UTC
国别 :
美国 (US)
星等 :
--
This satellite is enrolled in the Space Conjunction Data Service (SCDS) and the current flight risk assessment level is: No High Risk
Orbit Information
数据来源 国际轨道数据
星历时间: 2026-09-13T09:18:54+0800
9小时前
查看轨道信息
半长轴: 6840.815km
偏心率: 0.0001386
轨道倾角: 53.157°
近地点辐角 62.793°
升交点赤经 166.405°
平近点角 297.321°
近地点: 461.729km
远地点: 463.627km
周期: 93.847分钟
每日圈数: 15.344088
Detailed Information
固有亮度:
5
最大亮度:
2.5
卫星平台:
Starlink V1.0
覆盖范围:
全球
运营商:
太空探索技术公司
运营商所在国:
美国
制造商(研发单位):
太空探索技术公司
制造商所在国:
美国
使用方式:
暂无
Satellite Introduction
Starlink 计划是 SpaceX 推出的全球卫星互联网项目,通过发射低轨道卫星,为全球尤其是偏远地区提供高速、低延迟的互联网服务。自 2019 年起,Starlink 已部署数千颗卫星,旨在缩小全球数字鸿沟,推动互联网普及。该项目还为军事、航空等行业提供通信支持,带来广泛经济效益。
2D Orbit Map
3D Orbit Map
Orbit Altitude Analysis Chart
Orbit Inclination Analysis Chart
Orbit Comprehensive Analysis Chart
View Comprehensive Chart
Conjunction Data List
Event ID Objects TCA Miss Dist (km) Collision Risk Probability Collision Risk Index (CRI) Action
CDM_260915-200106-041306-828121
2026-09-15T
20:01:41+0000
0.841 km
远距离
3.077928E-5 中风险 0.65
CDM_260915-213506-041306-828121
2026-09-15T
21:35:28+0000
1.421 km
极远距离
5.135485E-6 低风险 0.49
CDM_260908-000105-353906-828122
2026-09-08T
00:01:07+0000
1.713 km
极远距离
3.715429E-6 低风险 0.46
CDM_260913-160105-211006-828122
2026-09-13T
16:01:26+0000
2.136 km
极远距离
2.07356E-6 低风险 0.41
CDM_260913-183205-338806-828122
2026-09-13T
18:32:58+0000
2.522 km
极远距离
1.539537E-6 低风险 0.39
CDM_260914-053805-317506-828121
2026-09-14T
05:38:16+0000
2.725 km
极远距离
1.262726E-6 低风险 0.37
Miss Distance Evolution Trend with All Objects
Collision Probability Evolution Trend with All Objects